contact: severine.martini@mio.osupytheas.fr, dominique.lefevre@mio.osupytheas.fr
Project:EMSO Ligure-ouest http://www.emso-fr.org/EMSO-France
Sensor Microcat Sea-Bird SBE37 SMP,  Serial 57510 
DOI : "https://doi.org/10.17882/97948" 
Title:EMSO Ligure Ouest : Data Bathybot capteur Microcat - deploiement 2023-04-28
Datetime,Profondeur,Latitude,Longitude,Temperature,Conductivite,Pression,Salinite
time,m,degree_north,degree_east,degree_C,S/m,db,PSU 
2023-11-13T00:00:49,2420,42.8014,5.9826,13.2986,4.54284,2453.559,37.9557
2023-11-13T00:03:49,2420,42.8014,5.9826,13.2985,4.54259,2453.514,37.9536
2023-11-13T00:06:49,2420,42.8014,5.9826,13.2989,4.54267,2453.574,37.9538
2023-11-13T00:09:49,2420,42.8014,5.9826,13.2988,4.54277,2453.582,37.9549
2023-11-13T00:12:49,2420,42.8014,5.9826,13.2986,4.54270,2453.574,37.9544
2023-11-13T00:15:49,2420,42.8014,5.9826,13.2991,4.54248,2453.582,37.9519
2023-11-13T00:18:49,2420,42.8014,5.9826,13.2991,4.54238,2453.537,37.9509
2023-11-13T00:21:49,2420,42.8014,5.9826,13.2986,4.54239,2453.559,37.9515
2023-11-13T00:24:49,2420,42.8014,5.9826,13.2986,4.54250,2453.544,37.9526
2023-11-13T00:27:49,2420,42.8014,5.9826,13.2986,4.54225,2453.514,37.9502
2023-11-13T00:30:49,2420,42.8014,5.9826,13.2986,4.54186,2453.537,37.9465
2023-11-13T00:33:49,2420,42.8014,5.9826,13.2985,4.54226,2453.522,37.9504
2023-11-13T00:36:49,2420,42.8014,5.9826,13.2987,4.54242,2453.537,37.9517
2023-11-13T00:39:49,2420,42.8014,5.9826,13.2984,4.54242,2453.537,37.9520
2023-11-13T00:42:49,2420,42.8014,5.9826,13.2988,4.54238,2453.551,37.9512
2023-11-13T00:45:49,2420,42.8014,5.9826,13.2985,4.54217,2453.514,37.9496
2023-11-13T00:48:49,2420,42.8014,5.9826,13.2987,4.54257,2453.537,37.9531
2023-11-13T00:51:49,2420,42.8014,5.9826,13.2989,4.54226,2453.537,37.9500
2023-11-13T00:54:49,2420,42.8014,5.9826,13.2985,4.54225,2453.514,37.9503
2023-11-13T00:57:49,2420,42.8014,5.9826,13.2988,4.54219,2453.499,37.9495
2023-11-13T01:00:49,2420,42.8014,5.9826,13.2986,4.54223,2453.522,37.9501
2023-11-13T01:03:49,2420,42.8014,5.9826,13.2987,4.54244,2453.537,37.9519
2023-11-13T01:06:49,2420,42.8014,5.9826,13.2990,4.54238,2453.537,37.9510
2023-11-13T01:09:49,2420,42.8014,5.9826,13.2990,4.54249,2453.559,37.9521
2023-11-13T01:12:49,2420,42.8014,5.9826,13.2988,4.54237,2453.514,37.9512
2023-11-13T01:15:49,2420,42.8014,5.9826,13.2987,4.54265,2453.537,37.9539
2023-11-13T01:18:49,2420,42.8014,5.9826,13.2985,4.54259,2453.491,37.9536
2023-11-13T01:21:49,2420,42.8014,5.9826,13.2986,4.54249,2453.499,37.9524
2023-11-13T01:24:49,2420,42.8014,5.9826,13.2986,4.54246,2453.559,37.9522
2023-11-13T01:27:49,2420,42.8014,5.9826,13.2989,4.54265,2453.514,37.9537
2023-11-13T01:30:49,2420,42.8014,5.9826,13.2993,4.54286,2453.537,37.9553
2023-11-13T01:33:49,2420,42.8014,5.9826,13.2991,4.54268,2453.537,37.9538
2023-11-13T01:36:49,2420,42.8014,5.9826,13.2987,4.54278,2453.514,37.9551
2023-11-13T01:39:49,2420,42.8014,5.9826,13.2989,4.54243,2453.491,37.9516
2023-11-13T01:42:49,2420,42.8014,5.9826,13.2986,4.54278,2453.537,37.9552
2023-11-13T01:45:49,2420,42.8014,5.9826,13.2986,4.54257,2453.522,37.9533
2023-11-13T01:48:49,2420,42.8014,5.9826,13.2986,4.54283,2453.514,37.9556
2023-11-13T01:51:49,2420,42.8014,5.9826,13.2988,4.54271,2453.537,37.9544
2023-11-13T01:54:49,2420,42.8014,5.9826,13.2987,4.54267,2453.537,37.9540
2023-11-13T01:57:49,2420,42.8014,5.9826,13.2988,4.54261,2453.537,37.9534
2023-11-13T02:00:49,2420,42.8014,5.9826,13.2985,4.54245,2453.514,37.9522
2023-11-13T02:03:49,2420,42.8014,5.9826,13.2986,4.54244,2453.537,37.9520
2023-11-13T02:06:49,2420,42.8014,5.9826,13.2985,4.54259,2453.537,37.9536
2023-11-13T02:09:49,2420,42.8014,5.9826,13.2985,4.54242,2453.574,37.9520
2023-11-13T02:12:49,2420,42.8014,5.9826,13.2987,4.54250,2453.537,37.9524
2023-11-13T02:15:49,2420,42.8014,5.9826,13.2985,4.54264,2453.514,37.9541
2023-11-13T02:18:49,2420,42.8014,5.9826,13.2988,4.54278,2453.559,37.9551
2023-11-13T02:21:49,2420,42.8014,5.9826,13.2983,4.54280,2453.544,37.9557
2023-11-13T02:24:49,2420,42.8014,5.9826,13.2986,4.54294,2453.559,37.9567
2023-11-13T02:27:49,2420,42.8014,5.9826,13.2985,4.54275,2453.559,37.9550
2023-11-13T02:30:50,2420,42.8014,5.9826,13.2979,4.54273,2453.574,37.9554
2023-11-13T02:33:49,2420,42.8014,5.9826,13.2985,4.54266,2453.522,37.9542
2023-11-13T02:36:49,2420,42.8014,5.9826,13.2985,4.54287,2453.574,37.9561
2023-11-13T02:39:49,2420,42.8014,5.9826,13.2990,4.54273,2453.574,37.9543
2023-11-13T02:42:49,2420,42.8014,5.9826,13.2987,4.54290,2453.514,37.9562
2023-11-13T02:45:49,2420,42.8014,5.9826,13.2987,4.54283,2453.559,37.9555
2023-11-13T02:48:49,2420,42.8014,5.9826,13.2986,4.54281,2453.544,37.9554
2023-11-13T02:51:49,2420,42.8014,5.9826,13.2985,4.54283,2453.537,37.9558
2023-11-13T02:54:49,2420,42.8014,5.9826,13.2986,4.54275,2453.596,37.9550
2023-11-13T02:57:49,2420,42.8014,5.9826,13.2988,4.54292,2453.559,37.9564
2023-11-13T03:00:50,2420,42.8014,5.9826,13.2985,4.54265,2453.537,37.9541
2023-11-13T03:03:49,2420,42.8014,5.9826,13.2988,4.54273,2453.559,37.9545
2023-11-13T03:06:49,2420,42.8014,5.9826,13.2985,4.54283,2453.559,37.9558
2023-11-13T03:09:49,2420,42.8014,5.9826,13.2989,4.54242,2453.559,37.9515
2023-11-13T03:12:49,2420,42.8014,5.9826,13.2986,4.54225,2453.567,37.9503
2023-11-13T03:15:49,2420,42.8014,5.9826,13.2988,4.54238,2453.559,37.9512
2023-11-13T03:18:49,2420,42.8014,5.9826,13.2986,4.54251,2453.559,37.9526
2023-11-13T03:21:49,2420,42.8014,5.9826,13.2985,4.54223,2453.559,37.9501
2023-11-13T03:24:49,2420,42.8014,5.9826,13.2986,4.54296,2453.596,37.9569
2023-11-13T03:27:49,2420,42.8014,5.9826,13.2982,4.54313,2453.582,37.9589
2023-11-13T03:30:49,2420,42.8014,5.9826,13.2986,4.54273,2453.582,37.9546
2023-11-13T03:33:49,2420,42.8014,5.9826,13.2991,4.54287,2453.604,37.9555
2023-11-13T03:36:49,2420,42.8014,5.9826,13.2985,4.54273,2453.559,37.9548
2023-11-13T03:39:49,2420,42.8014,5.9826,13.2993,4.54264,2453.604,37.9532
2023-11-13T03:42:49,2420,42.8014,5.9826,13.2980,4.54249,2453.590,37.9530
2023-11-13T03:45:49,2420,42.8014,5.9826,13.2986,4.54278,2453.582,37.9552
2023-11-13T03:48:49,2420,42.8014,5.9826,13.2991,4.54273,2453.604,37.9541
2023-11-13T03:51:49,2420,42.8014,5.9826,13.2988,4.54253,2453.627,37.9527
2023-11-13T03:54:49,2420,42.8014,5.9826,13.2991,4.54270,2453.604,37.9539
2023-11-13T03:57:49,2420,42.8014,5.9826,13.2992,4.54329,2453.649,37.9594
2023-11-13T04:00:49,2420,42.8014,5.9826,13.2988,4.54241,2453.604,37.9515
2023-11-13T04:03:49,2420,42.8014,5.9826,13.2988,4.54235,2453.627,37.9510
2023-11-13T04:06:49,2420,42.8014,5.9826,13.3007,4.54253,2453.604,37.9508
2023-11-13T04:09:49,2420,42.8014,5.9826,13.2989,4.54235,2453.627,37.9508
2023-11-13T04:12:49,2420,42.8014,5.9826,13.2991,4.54219,2453.627,37.9491
2023-11-13T04:15:49,2420,42.8014,5.9826,13.2991,4.54253,2453.627,37.9523
2023-11-13T04:18:49,2420,42.8014,5.9826,13.2999,4.54219,2453.649,37.9483
2023-11-13T04:21:49,2420,42.8014,5.9826,13.2986,4.54229,2453.664,37.9505
2023-11-13T04:24:49,2420,42.8014,5.9826,13.2988,4.54238,2453.627,37.9512
2023-11-13T04:27:50,2420,42.8014,5.9826,13.2985,4.54229,2453.635,37.9506
2023-11-13T04:30:49,2420,42.8014,5.9826,13.3004,4.54237,2453.649,37.9495
2023-11-13T04:33:49,2420,42.8014,5.9826,13.2984,4.54234,2453.672,37.9512
2023-11-13T04:36:49,2420,42.8014,5.9826,13.2998,4.54241,2453.687,37.9505
2023-11-13T04:39:49,2420,42.8014,5.9826,13.3007,4.54211,2453.649,37.9468
2023-11-13T04:42:49,2420,42.8014,5.9826,13.2990,4.54208,2453.649,37.9482
2023-11-13T04:45:49,2420,42.8014,5.9826,13.2987,4.54205,2453.649,37.9482
2023-11-13T04:48:49,2420,42.8014,5.9826,13.3000,4.54202,2453.649,37.9467
2023-11-13T04:51:49,2420,42.8014,5.9826,13.2987,4.54242,2453.657,37.9516
2023-11-13T04:54:49,2420,42.8014,5.9826,13.2990,4.54228,2453.672,37.9500
2023-11-13T04:57:49,2420,42.8014,5.9826,13.2983,4.54239,2453.672,37.9517
2023-11-13T05:00:49,2420,42.8014,5.9826,13.2988,4.54233,2453.657,37.9508
2023-11-13T05:03:49,2420,42.8014,5.9826,13.2986,4.54211,2453.657,37.9489
2023-11-13T05:06:49,2420,42.8014,5.9826,13.2986,4.54243,2453.657,37.9518
2023-11-13T05:09:49,2420,42.8014,5.9826,13.2989,4.54218,2453.672,37.9492
2023-11-13T05:12:49,2420,42.8014,5.9826,13.2991,4.54187,2453.695,37.9460
2023-11-13T05:15:49,2420,42.8014,5.9826,13.2986,4.54220,2453.740,37.9496
2023-11-13T05:18:49,2420,42.8014,5.9826,13.2992,4.54234,2453.695,37.9504
2023-11-13T05:21:49,2420,42.8014,5.9826,13.3045,4.54229,2453.672,37.9447
2023-11-13T05:24:49,2420,42.8014,5.9826,13.3000,4.54217,2453.695,37.9480
2023-11-13T05:27:49,2420,42.8014,5.9826,13.2986,4.54249,2453.672,37.9524
2023-11-13T05:30:49,2420,42.8014,5.9826,13.2988,4.54235,2453.717,37.9509
2023-11-13T05:33:49,2420,42.8014,5.9826,13.2987,4.54216,2453.695,37.9492
2023-11-13T05:36:49,2420,42.8014,5.9826,13.3002,4.54251,2453.717,37.9510
2023-11-13T05:39:49,2420,42.8014,5.9826,13.2995,4.54242,2453.702,37.9508
2023-11-13T05:42:49,2420,42.8014,5.9826,13.3024,4.54242,2453.740,37.9480
2023-11-13T05:45:49,2420,42.8014,5.9826,13.2985,4.54233,2453.702,37.9510
2023-11-13T05:48:49,2420,42.8014,5.9826,13.3013,4.54243,2453.732,37.9492
2023-11-13T05:51:49,2420,42.8014,5.9826,13.3002,4.54248,2453.732,37.9507
2023-11-13T05:54:49,2420,42.8014,5.9826,13.3033,4.54270,2453.717,37.9499
2023-11-13T05:57:49,2420,42.8014,5.9826,13.2986,4.54240,2453.732,37.9515
2023-11-13T06:00:49,2420,42.8014,5.9826,13.2985,4.54250,2453.695,37.9526
2023-11-13T06:03:49,2420,42.8014,5.9826,13.2985,4.54213,2453.695,37.9491
2023-11-13T06:06:49,2420,42.8014,5.9826,13.3004,4.54246,2453.695,37.9503
2023-11-13T06:09:49,2420,42.8014,5.9826,13.2979,4.54251,2453.717,37.9533
2023-11-13T06:12:49,2420,42.8014,5.9826,13.2988,4.54215,2453.717,37.9490
2023-11-13T06:15:49,2420,42.8014,5.9826,13.3012,4.54225,2453.717,37.9475
2023-11-13T06:18:49,2420,42.8014,5.9826,13.2982,4.54231,2453.762,37.9511
2023-11-13T06:21:49,2420,42.8014,5.9826,13.2985,4.54274,2453.702,37.9549
2023-11-13T06:24:49,2420,42.8014,5.9826,13.2988,4.54256,2453.725,37.9529
2023-11-13T06:27:49,2420,42.8014,5.9826,13.2988,4.54275,2453.740,37.9546
2023-11-13T06:30:49,2420,42.8014,5.9826,13.2992,4.54277,2453.740,37.9544
2023-11-13T06:33:49,2420,42.8014,5.9826,13.2988,4.54287,2453.717,37.9558
2023-11-13T06:36:49,2420,42.8014,5.9826,13.2980,4.54270,2453.740,37.9549
2023-11-13T06:39:49,2420,42.8014,5.9826,13.2985,4.54294,2453.725,37.9567
2023-11-13T06:42:49,2420,42.8014,5.9826,13.2987,4.54261,2453.762,37.9535
2023-11-13T06:45:49,2420,42.8014,5.9826,13.2984,4.54253,2453.762,37.9530
2023-11-13T06:48:49,2420,42.8014,5.9826,13.2986,4.54234,2453.695,37.9510
2023-11-13T06:51:49,2420,42.8014,5.9826,13.2991,4.54288,2453.725,37.9556
2023-11-13T06:54:49,2420,42.8014,5.9826,13.2983,4.54286,2453.740,37.9561
2023-11-13T06:57:49,2420,42.8014,5.9826,13.2985,4.54350,2453.777,37.9621
2023-11-13T07:00:49,2420,42.8014,5.9826,13.2987,4.54284,2453.740,37.9556
2023-11-13T07:03:49,2420,42.8014,5.9826,13.2988,4.54273,2453.740,37.9545
2023-11-13T07:06:49,2420,42.8014,5.9826,13.2988,4.54295,2453.740,37.9565
2023-11-13T07:09:49,2420,42.8014,5.9826,13.2986,4.54264,2453.762,37.9539
2023-11-13T07:12:49,2420,42.8014,5.9826,13.2987,4.54340,2453.725,37.9609
2023-11-13T07:15:49,2420,42.8014,5.9826,13.2986,4.54258,2453.748,37.9532
2023-11-13T07:18:49,2420,42.8014,5.9826,13.2982,4.54268,2453.740,37.9546
2023-11-13T07:21:49,2420,42.8014,5.9826,13.2981,4.54261,2453.740,37.9540
2023-11-13T07:24:49,2420,42.8014,5.9826,13.2988,4.54259,2453.762,37.9531
2023-11-13T07:27:49,2420,42.8014,5.9826,13.2986,4.54261,2453.785,37.9535
2023-11-13T07:30:50,2420,42.8014,5.9826,13.2983,4.54301,2453.762,37.9575
2023-11-13T07:33:49,2420,42.8014,5.9826,13.2986,4.54275,2453.762,37.9548
2023-11-13T07:36:49,2420,42.8014,5.9826,13.2987,4.54263,2453.740,37.9536
2023-11-13T07:39:49,2420,42.8014,5.9826,13.2987,4.54291,2453.762,37.9562
2023-11-13T07:42:49,2420,42.8014,5.9826,13.3004,4.54315,2453.740,37.9569
2023-11-13T07:45:49,2420,42.8014,5.9826,13.3001,4.54298,2453.717,37.9555
2023-11-13T07:48:49,2420,42.8014,5.9826,13.2993,4.54300,2453.732,37.9565
2023-11-13T07:51:49,2420,42.8014,5.9826,13.2990,4.54314,2453.702,37.9581
2023-11-13T07:54:49,2420,42.8014,5.9826,13.2991,4.54320,2453.762,37.9586
2023-11-13T07:57:49,2420,42.8014,5.9826,13.2996,4.54290,2453.740,37.9553
2023-11-13T08:00:49,2420,42.8014,5.9826,13.2982,4.54294,2453.762,37.9571
2023-11-13T08:03:49,2420,42.8014,5.9826,13.2987,4.54311,2453.740,37.9581
2023-11-13T08:06:49,2420,42.8014,5.9826,13.2989,4.54315,2453.740,37.9583
2023-11-13T08:09:49,2420,42.8014,5.9826,13.2986,4.54312,2453.732,37.9583
2023-11-13T08:12:49,2420,42.8014,5.9826,13.2996,4.54290,2453.740,37.9553
2023-11-13T08:15:49,2420,42.8014,5.9826,13.2984,4.54275,2453.748,37.9551
2023-11-13T08:18:49,2420,42.8014,5.9826,13.2982,4.54323,2453.740,37.9597
2023-11-13T08:21:49,2420,42.8014,5.9826,13.2984,4.54278,2453.762,37.9554
2023-11-13T08:24:49,2420,42.8014,5.9826,13.2984,4.54288,2453.740,37.9563
2023-11-13T08:27:50,2420,42.8014,5.9826,13.2999,4.54292,2453.717,37.9552
2023-11-13T08:30:49,2420,42.8014,5.9826,13.2986,4.54289,2453.717,37.9561
2023-11-13T08:33:49,2420,42.8014,5.9826,13.2985,4.54287,2453.717,37.9560
2023-11-13T08:36:49,2420,42.8014,5.9826,13.2982,4.54266,2453.762,37.9544
2023-11-13T08:39:49,2420,42.8014,5.9826,13.2983,4.54279,2453.717,37.9555
2023-11-13T08:42:49,2420,42.8014,5.9826,13.2988,4.54255,2453.754,37.9528
2023-11-13T08:45:49,2420,42.8014,5.9826,13.2988,4.54261,2453.680,37.9534
2023-11-13T08:48:49,2420,42.8014,5.9826,13.2987,4.54248,2453.717,37.9522
2023-11-13T08:51:49,2420,42.8014,5.9826,13.2982,4.54199,2453.717,37.9481
2023-11-13T08:54:49,2420,42.8014,5.9826,13.2983,4.54229,2453.740,37.9508
2023-11-13T08:57:49,2420,42.8014,5.9826,13.2985,4.54219,2453.717,37.9497
2023-11-13T09:00:49,2420,42.8014,5.9826,13.2985,4.54270,2453.702,37.9545
2023-11-13T09:03:49,2420,42.8014,5.9826,13.2985,4.54251,2453.717,37.9527
2023-11-13T09:06:49,2420,42.8014,5.9826,13.2986,4.54231,2453.717,37.9508
2023-11-13T09:09:49,2420,42.8014,5.9826,13.2987,4.54262,2453.717,37.9536
2023-11-13T09:12:49,2420,42.8014,5.9826,13.2982,4.54245,2453.740,37.9525
2023-11-13T09:15:49,2420,42.8014,5.9826,13.2988,4.54295,2453.702,37.9566
2023-11-13T09:18:49,2420,42.8014,5.9826,13.2991,4.54268,2453.732,37.9538
2023-11-13T09:21:49,2420,42.8014,5.9826,13.2985,4.54271,2453.717,37.9546
2023-11-13T09:24:49,2420,42.8014,5.9826,13.2993,4.54253,2453.717,37.9521
2023-11-13T09:27:49,2420,42.8014,5.9826,13.2986,4.54259,2453.695,37.9534
2023-11-13T09:30:49,2420,42.8014,5.9826,13.2985,4.54225,2453.754,37.9502
2023-11-13T09:33:49,2420,42.8014,5.9826,13.2987,4.54279,2453.740,37.9551
2023-11-13T09:36:49,2420,42.8014,5.9826,13.2981,4.54275,2453.717,37.9554
2023-11-13T09:39:49,2420,42.8014,5.9826,13.2984,4.54234,2453.717,37.9511
2023-11-13T09:42:49,2420,42.8014,5.9826,13.2985,4.54266,2453.649,37.9541
2023-11-13T09:45:49,2420,42.8014,5.9826,13.2982,4.54275,2453.695,37.9553
2023-11-13T09:48:49,2420,42.8014,5.9826,13.2985,4.54284,2453.732,37.9558
2023-11-13T09:51:49,2420,42.8014,5.9826,13.2982,4.54286,2453.695,37.9563
2023-11-13T09:54:49,2420,42.8014,5.9826,13.2985,4.54264,2453.732,37.9539
2023-11-13T09:57:49,2420,42.8014,5.9826,13.2984,4.54271,2453.695,37.9547
2023-11-13T10:00:49,2420,42.8014,5.9826,13.2985,4.54289,2453.695,37.9563
2023-11-13T10:03:49,2420,42.8014,5.9826,13.2986,4.54264,2453.717,37.9539
2023-11-13T10:06:49,2420,42.8014,5.9826,13.2985,4.54269,2453.695,37.9544
2023-11-13T10:09:49,2420,42.8014,5.9826,13.2984,4.54284,2453.649,37.9559
2023-11-13T10:12:49,2420,42.8014,5.9826,13.2984,4.54266,2453.672,37.9542
2023-11-13T10:15:49,2420,42.8014,5.9826,13.2998,4.54239,2453.649,37.9503
2023-11-13T10:18:49,2420,42.8014,5.9826,13.2982,4.54251,2453.649,37.9530
2023-11-13T10:21:49,2420,42.8014,5.9826,13.2985,4.54261,2453.664,37.9537
2023-11-13T10:24:49,2420,42.8014,5.9826,13.2981,4.54275,2453.664,37.9554
2023-11-13T10:27:49,2420,42.8014,5.9826,13.2984,4.54282,2453.672,37.9557
2023-11-13T10:30:49,2420,42.8014,5.9826,13.2990,4.54270,2453.672,37.9540
2023-11-13T10:33:49,2420,42.8014,5.9826,13.2983,4.54294,2453.695,37.9569
2023-11-13T10:36:49,2420,42.8014,5.9826,13.2983,4.54255,2453.695,37.9533
2023-11-13T10:39:49,2420,42.8014,5.9826,13.2985,4.54244,2453.717,37.9521
2023-11-13T10:42:49,2420,42.8014,5.9826,13.2986,4.54275,2453.695,37.9549
2023-11-13T10:45:49,2420,42.8014,5.9826,13.2982,4.54287,2453.649,37.9564
2023-11-13T10:48:49,2420,42.8014,5.9826,13.2992,4.54314,2453.672,37.9580
2023-11-13T10:51:49,2420,42.8014,5.9826,13.2988,4.54318,2453.627,37.9588
2023-11-13T10:54:49,2420,42.8014,5.9826,13.2984,4.54283,2453.635,37.9558
2023-11-13T10:57:49,2420,42.8014,5.9826,13.3008,4.54263,2453.672,37.9516
2023-11-13T11:00:50,2420,42.8014,5.9826,13.2995,4.54300,2453.649,37.9563
2023-11-13T11:03:49,2420,42.8014,5.9826,13.2987,4.54336,2453.672,37.9605
2023-11-13T11:06:49,2420,42.8014,5.9826,13.2991,4.54322,2453.649,37.9588
2023-11-13T11:09:49,2420,42.8014,5.9826,13.2997,4.54343,2453.649,37.9603
2023-11-13T11:12:49,2420,42.8014,5.9826,13.2997,4.54271,2453.672,37.9534
2023-11-13T11:15:49,2420,42.8014,5.9826,13.3004,4.54314,2453.649,37.9568
2023-11-13T11:18:49,2420,42.8014,5.9826,13.2985,4.54326,2453.672,37.9598
2023-11-13T11:21:49,2420,42.8014,5.9826,13.3004,4.54348,2453.649,37.9600
2023-11-13T11:24:49,2420,42.8014,5.9826,13.2989,4.54317,2453.672,37.9586
2023-11-13T11:27:49,2420,42.8014,5.9826,13.3002,4.54311,2453.604,37.9567
2023-11-13T11:30:49,2420,42.8014,5.9826,13.3005,4.54314,2453.627,37.9566
2023-11-13T11:33:49,2420,42.8014,5.9826,13.3006,4.54328,2453.627,37.9579
2023-11-13T11:36:49,2420,42.8014,5.9826,13.2996,4.54293,2453.649,37.9557
2023-11-13T11:39:49,2420,42.8014,5.9826,13.2999,4.54310,2453.604,37.9569
2023-11-13T11:42:49,2420,42.8014,5.9826,13.3015,4.54292,2453.604,37.9536
2023-11-13T11:45:49,2420,42.8014,5.9826,13.2991,4.54322,2453.604,37.9588
2023-11-13T11:48:49,2420,42.8014,5.9826,13.2982,4.54348,2453.627,37.9621
2023-11-13T11:51:49,2420,42.8014,5.9826,13.2989,4.54348,2453.627,37.9614
2023-11-13T11:54:49,2420,42.8014,5.9826,13.2996,4.54290,2453.627,37.9553
2023-11-13T11:57:49,2420,42.8014,5.9826,13.3005,4.54352,2453.604,37.9603
2023-11-13T12:00:49,2420,42.8014,5.9826,13.2990,4.54328,2453.627,37.9595
2023-11-13T12:03:49,2420,42.8014,5.9826,13.2992,4.54407,2453.604,37.9667
2023-11-13T12:06:49,2420,42.8014,5.9826,13.3011,4.54333,2453.627,37.9579
2023-11-13T12:09:49,2420,42.8014,5.9826,13.3006,4.54359,2453.604,37.9608
2023-11-13T12:12:49,2420,42.8014,5.9826,13.2998,4.54370,2453.604,37.9627
2023-11-13T12:15:49,2420,42.8014,5.9826,13.2998,4.54304,2453.612,37.9565
2023-11-13T12:18:49,2420,42.8014,5.9826,13.2992,4.54360,2453.604,37.9623
2023-11-13T12:21:50,2420,42.8014,5.9826,13.2997,4.54405,2453.604,37.9661
2023-11-13T12:24:49,2420,42.8014,5.9826,13.3008,4.54367,2453.604,37.9614
2023-11-13T12:27:49,2420,42.8014,5.9826,13.2996,4.54371,2453.582,37.9630
2023-11-13T12:30:49,2420,42.8014,5.9826,13.3000,4.54357,2453.567,37.9613
2023-11-13T12:33:49,2420,42.8014,5.9826,13.2986,4.54312,2453.567,37.9584
2023-11-13T12:36:49,2420,42.8014,5.9826,13.2991,4.54321,2453.604,37.9588
2023-11-13T12:39:49,2420,42.8014,5.9826,13.3000,4.54362,2453.582,37.9618
2023-11-13T12:42:49,2420,42.8014,5.9826,13.2986,4.54368,2453.582,37.9636
2023-11-13T12:45:49,2420,42.8014,5.9826,13.2989,4.54351,2453.596,37.9618
2023-11-13T12:48:49,2420,42.8014,5.9826,13.2988,4.54350,2453.582,37.9617
2023-11-13T12:51:49,2420,42.8014,5.9826,13.2987,4.54281,2453.559,37.9553
2023-11-13T12:54:49,2420,42.8014,5.9826,13.2996,4.54225,2453.582,37.9492
2023-11-13T12:57:49,2420,42.8014,5.9826,13.2987,4.54293,2453.582,37.9565
2023-11-13T13:00:49,2420,42.8014,5.9826,13.2989,4.54293,2453.604,37.9563
2023-11-13T13:03:49,2420,42.8014,5.9826,13.3000,4.54300,2453.604,37.9558
2023-11-13T13:06:49,2420,42.8014,5.9826,13.2989,4.54304,2453.582,37.9574
2023-11-13T13:09:49,2420,42.8014,5.9826,13.2994,4.54293,2453.559,37.9558
2023-11-13T13:12:49,2420,42.8014,5.9826,13.2993,4.54308,2453.559,37.9573
2023-11-13T13:15:49,2420,42.8014,5.9826,13.2987,4.54344,2453.582,37.9613
2023-11-13T13:18:49,2420,42.8014,5.9826,13.2996,4.54297,2453.596,37.9560
2023-11-13T13:21:49,2420,42.8014,5.9826,13.2992,4.54265,2453.582,37.9534
2023-11-13T13:24:49,2420,42.8014,5.9826,13.2993,4.54342,2453.582,37.9605
2023-11-13T13:27:50,2420,42.8014,5.9826,13.2993,4.54330,2453.582,37.9594
2023-11-13T13:30:49,2420,42.8014,5.9826,13.2991,4.54322,2453.604,37.9588
2023-11-13T13:33:49,2420,42.8014,5.9826,13.3015,4.54329,2453.582,37.9572
2023-11-13T13:36:49,2420,42.8014,5.9826,13.2994,4.54279,2453.559,37.9545
2023-11-13T13:39:49,2420,42.8014,5.9826,13.3004,4.54347,2453.559,37.9599
2023-11-13T13:42:49,2420,42.8014,5.9826,13.2988,4.54295,2453.559,37.9566
2023-11-13T13:45:49,2420,42.8014,5.9826,13.2994,4.54271,2453.596,37.9537
2023-11-13T13:48:49,2420,42.8014,5.9826,13.2990,4.54287,2453.604,37.9556
2023-11-13T13:51:49,2420,42.8014,5.9826,13.2993,4.54281,2453.582,37.9548
2023-11-13T13:54:49,2420,42.8014,5.9826,13.2998,4.54353,2453.582,37.9611
2023-11-13T13:57:49,2420,42.8014,5.9826,13.2995,4.54371,2453.582,37.9631
2023-11-13T14:00:49,2420,42.8014,5.9826,13.2992,4.54363,2453.567,37.9626
2023-11-13T14:03:49,2420,42.8014,5.9826,13.2988,4.54369,2453.567,37.9635
2023-11-13T14:06:49,2420,42.8014,5.9826,13.2996,4.54330,2453.559,37.9592
2023-11-13T14:09:49,2420,42.8014,5.9826,13.2995,4.54371,2453.582,37.9631
2023-11-13T14:12:49,2420,42.8014,5.9826,13.2993,4.54426,2453.582,37.9685
2023-11-13T14:15:49,2420,42.8014,5.9826,13.3001,4.54516,2453.619,37.9761
2023-11-13T14:18:50,2420,42.8014,5.9826,13.2997,4.54576,2453.582,37.9822
2023-11-13T14:21:49,2420,42.8014,5.9826,13.2990,4.54568,2453.537,37.9821
2023-11-13T14:24:49,2420,42.8014,5.9826,13.2990,4.54469,2453.582,37.9728
2023-11-13T14:27:49,2420,42.8014,5.9826,13.2985,4.54646,2453.582,37.9900
2023-11-13T14:30:49,2420,42.8014,5.9826,13.2991,4.54601,2453.582,37.9851
2023-11-13T14:33:49,2420,42.8014,5.9826,13.2990,4.54544,2453.582,37.9798
2023-11-13T14:36:49,2420,42.8014,5.9826,13.2999,4.54551,2453.582,37.9797
2023-11-13T14:39:49,2420,42.8014,5.9826,13.2993,4.54532,2453.582,37.9784
2023-11-13T14:42:49,2420,42.8014,5.9826,13.3002,4.54588,2453.582,37.9828
2023-11-13T14:45:49,2420,42.8014,5.9826,13.2993,4.54493,2453.582,37.9748
2023-11-13T14:48:49,2420,42.8014,5.9826,13.2995,4.54645,2453.627,37.9888
2023-11-13T14:51:49,2420,42.8014,5.9826,13.2998,4.54591,2453.627,37.9835
2023-11-13T14:54:49,2420,42.8014,5.9826,13.2994,4.54448,2453.604,37.9704
2023-11-13T14:57:49,2420,42.8014,5.9826,13.2994,4.54369,2453.567,37.9630
2023-11-13T15:00:49,2420,42.8014,5.9826,13.2996,4.54425,2453.604,37.9680
2023-11-13T15:03:49,2420,42.8014,5.9826,13.2997,4.54599,2453.604,37.9844
2023-11-13T15:06:49,2420,42.8014,5.9826,13.2997,4.54520,2453.590,37.9770
2023-11-13T15:09:49,2420,42.8014,5.9826,13.2993,4.54479,2453.582,37.9734
2023-11-13T15:12:49,2420,42.8014,5.9826,13.3001,4.54454,2453.627,37.9702
2023-11-13T15:15:49,2420,42.8014,5.9826,13.3010,4.54623,2453.604,37.9853
2023-11-13T15:18:49,2420,42.8014,5.9826,13.2993,4.54589,2453.627,37.9838
2023-11-13T15:21:49,2420,42.8014,5.9826,13.2986,4.54585,2453.604,37.9841
2023-11-13T15:24:49,2420,42.8014,5.9826,13.3002,4.54445,2453.627,37.9693
2023-11-13T15:27:49,2420,42.8014,5.9826,13.2993,4.54453,2453.604,37.9709
2023-11-13T15:30:49,2420,42.8014,5.9826,13.2991,4.54514,2453.627,37.9769
2023-11-13T15:33:49,2420,42.8014,5.9826,13.2993,4.54548,2453.619,37.9799
2023-11-13T15:36:49,2420,42.8014,5.9826,13.3005,4.54586,2453.612,37.9823
2023-11-13T15:39:49,2420,42.8014,5.9826,13.2995,4.54567,2453.627,37.9816
2023-11-13T15:42:49,2420,42.8014,5.9826,13.2996,4.54440,2453.649,37.9695
2023-11-13T15:45:49,2420,42.8014,5.9826,13.2998,4.54422,2453.627,37.9675
2023-11-13T15:48:49,2420,42.8014,5.9826,13.2989,4.54504,2453.649,37.9762
2023-11-13T15:51:49,2420,42.8014,5.9826,13.2997,4.54465,2453.649,37.9717
2023-11-13T15:54:49,2420,42.8014,5.9826,13.3010,4.54465,2453.627,37.9705
2023-11-13T15:57:49,2420,42.8014,5.9826,13.2988,4.54481,2453.627,37.9741
2023-11-13T16:00:49,2420,42.8014,5.9826,13.2991,4.54497,2453.672,37.9753
2023-11-13T16:03:49,2420,42.8014,5.9826,13.2991,4.54405,2453.649,37.9667